Location: Bothwell
(42.3833°S, 147.0000°E)
Time: 19:14:51
(UTC+11:00)

Gurwin Techsat 1B - Pass Details

Date: 04 October 2022
Orbit: 811 x 814 km, 98.8° (Epoch: 26 November)

Event Time Altitude Azimuth Distance (km) Brightness Sun altitude
Exits shadow 02:06:21 20° 158° (SSE) 1,823 10.9 -41.2°
Drops below altitude 10° 02:08:21 10° 174° (S) 2,435 11.7 -41.1°
Sets 02:10:58 0° 184° (S) 3,374 12.5 -40.9°
